Location: Unspecified
(0.0000°N, 0.0000°E)
Time: 13:12:40
(UTC+00:00)

S-56A Canister/Altair - Pass Details

Date: 18 December 2018
Orbit: 633 x 2500 km, 38.9° (Epoch: 25 March)

Event Time Altitude Azimuth Distance (km) Brightness Sun altitude
Rises 07:53:06 0° 330° (NNW) 5,910 11.6 26.6°
Reaches altitude 10° 07:57:40 10° 340° (NNW) 5,048 11.4 27.6°
Maximum altitude 08:10:04 31° 36° (NE) 3,696 11.3 30.3°
Drops below altitude 10° 08:21:43 10° 92° (E) 4,798 12.7 32.9°
Sets 08:25:49 0° 102° (ESE) 5,591 12.9 33.8°
